• In Moldova, Republic
  • List of Countries
  • For 7 days
  • Water Temperature
  • Satellite Maps
  • Weather Map
  • Weather Widgets
  • user-avatar
    Login

    Hourly Weather Konstantyna

    Today, 24 September, Monday

    Time Temperature Precipitation Wind Pressure Humidity
    00:00 +21°C° 0 mm 0 mps 714 mmHg 70%
    01:00 +20°C° 0 mm 0 mps 714 mmHg 71%
    02:00 +20°C° 0 mm 0 mps 714 mmHg 71%
    03:00 +20°C° 0 mm 0 mps 713 mmHg 71%
    04:00 +20°C° 0 mm 0 mps 713 mmHg 70%
    05:00 +20°C° 0 mm 0 mps 713 mmHg 69%
    06:00 +20°C° 0 mm 0 mps 713 mmHg 68%
    07:00 +23°C° 0 mm 1 mps 714 mmHg 59%
    08:00 +25°C° 0 mm 1 mps 714 mmHg 51%
    09:00 +27°C° 0 mm 1 mps 715 mmHg 42%
    10:00 +27°C° 0 mm 2 mps 715 mmHg 40%
    11:00 +28°C° 0 mm 2 mps 715 mmHg 38%
    12:00 +29°C° 0 mm 3 mps 715 mmHg 36%
    13:00 +29°C° 0 mm 3 mps 714 mmHg 38%
    14:00 +29°C° 0 mm 3 mps 714 mmHg 39%
    15:00 +29°C° 0 mm 4 mps 714 mmHg 41%
    16:00 +28°C° 0 mm 3 mps 714 mmHg 48%
    17:00 +27°C° 0 mm 3 mps 714 mmHg 55%
    18:00 +25°C° 0 mm 3 mps 714 mmHg 62%
    19:00 +25°C° 0 mm 2 mps 714 mmHg 67%
    20:00 +24°C° 0 mm 2 mps 714 mmHg 72%
    21:00 +23°C° 0 mm 1 mps 714 mmHg 77%
    22:00 +23°C° 0 mm 1 mps 714 mmHg 80%
    23:00 +23°C° 0 mm 1 mps 714 mmHg 82%

    Tomorrow, 25 September, Tuesday

    Time Temperature Precipitation Wind Pressure Humidity
    00:00 +22°C° 0 mm 1 mps 714 mmHg 84%
    01:00 +22°C° 0 mm 1 mps 714 mmHg 85%
    02:00 +22°C° 0 mm 1 mps 714 mmHg 87%
    03:00 +21°C° 0 mm 1 mps 713 mmHg 88%
    04:00 +21°C° 0 mm 1 mps 714 mmHg 88%
    05:00 +21°C° 0 mm 1 mps 714 mmHg 88%
    06:00 +21°C° 0 mm 1 mps 714 mmHg 88%
    07:00 +22°C° 0 mm 1 mps 714 mmHg 81%
    08:00 +23°C° 0 mm 1 mps 714 mmHg 75%
    09:00 +24°C° 0 mm 1 mps 715 mmHg 68%
    10:00 +25°C° 0 mm 1 mps 715 mmHg 62%
    11:00 +26°C° 0 mm 2 mps 715 mmHg 55%
    12:00 +28°C° 0 mm 2 mps 715 mmHg 49%
    13:00 +28°C° 0 mm 3 mps 714 mmHg 49%
    14:00 +28°C° 0 mm 3 mps 714 mmHg 48%
    15:00 +28°C° 0 mm 4 mps 714 mmHg 48%
    16:00 +27°C° 0 mm 4 mps 714 mmHg 54%
    17:00 +26°C° 0 mm 4 mps 714 mmHg 60%
    18:00 +23°C° 0 mm 4 mps 714 mmHg 66%
    19:00 +24°C° 0.1 mm 3 mps 714 mmHg 70%
    20:00 +23°C° 0.1 mm 2 mps 714 mmHg 74%
    21:00 +21°C° 0.1 mm 2 mps 715 mmHg 78%
    22:00 +21°C° 0 mm 2 mps 715 mmHg 79%
    23:00 +21°C° 0 mm 1 mps 714 mmHg 81%

    Day after tomorrow, 26 September, Wednesday

    Time Temperature Precipitation Wind Pressure Humidity
    00:00 +21°C° 0 mm 1 mps 714 mmHg 82%
    01:00 +21°C° 0 mm 1 mps 714 mmHg 83%
    02:00 +20°C° 0 mm 1 mps 714 mmHg 84%
    03:00 +20°C° 0 mm 1 mps 714 mmHg 85%
    04:00 +20°C° 0 mm 1 mps 714 mmHg 85%
    05:00 +20°C° 0 mm 1 mps 714 mmHg 84%
    06:00 +20°C° 0 mm 1 mps 715 mmHg 84%
    07:00 +21°C° 0 mm 1 mps 715 mmHg 76%
    08:00 +23°C° 0 mm 1 mps 716 mmHg 68%
    09:00 +24°C° 0 mm 2 mps 716 mmHg 60%
    10:00 +25°C° 0.1 mm 2 mps 716 mmHg 57%
    11:00 +26°C° 0.1 mm 3 mps 716 mmHg 53%
    12:00 +27°C° 0.1 mm 4 mps 716 mmHg 49%
    13:00 +27°C° 0.1 mm 4 mps 716 mmHg 52%
    14:00 +27°C° 0.1 mm 4 mps 716 mmHg 54%
    15:00 +26°C° 0.1 mm 5 mps 716 mmHg 56%
    16:00 +25°C° 0.6 mm 5 mps 716 mmHg 62%
    17:00 +23°C° 0.6 mm 5 mps 716 mmHg 68%
    18:00 +22°C° 0.6 mm 5 mps 716 mmHg 74%
    19:00 +22°C° 0.4 mm 4 mps 716 mmHg 75%
    20:00 +21°C° 0.4 mm 4 mps 717 mmHg 77%
    21:00 +21°C° 0.4 mm 3 mps 717 mmHg 79%
    22:00 +21°C° 0 mm 3 mps 717 mmHg 79%
    23:00 +21°C° 0 mm 3 mps 717 mmHg 80%

    27 September, Thursday

    Time Temperature Precipitation Wind Pressure Humidity
    00:00 +20°C° 0 mm 3 mps 717 mmHg 81%
    01:00 +20°C° 0 mm 2 mps 717 mmHg 82%
    02:00 +20°C° 0 mm 2 mps 717 mmHg 83%
    03:00 +19°C° 0 mm 2 mps 716 mmHg 84%
    04:00 +19°C° 0 mm 2 mps 717 mmHg 84%
    05:00 +20°C° 0 mm 1 mps 717 mmHg 84%
    06:00 +20°C° 0 mm 1 mps 717 mmHg 85%
    07:00 +21°C° 0 mm 1 mps 717 mmHg 78%
    08:00 +22°C° 0 mm 1 mps 717 mmHg 71%
    09:00 +24°C° 0 mm 2 mps 718 mmHg 64%
    10:00 +25°C° 0 mm 2 mps 718 mmHg 59%
    11:00 +26°C° 0 mm 2 mps 717 mmHg 53%
    12:00 +27°C° 0 mm 2 mps 717 mmHg 48%
    13:00 +27°C° 0 mm 2 mps 717 mmHg 46%
    14:00 +27°C° 0 mm 3 mps 716 mmHg 44%
    15:00 +27°C° 0 mm 3 mps 716 mmHg 42%
    16:00 +26°C° 0 mm 3 mps 716 mmHg 46%
    17:00 +25°C° 0 mm 3 mps 715 mmHg 49%
    18:00 +24°C° 0 mm 3 mps 715 mmHg 52%
    19:00 +23°C° 0 mm 2 mps 715 mmHg 55%
    20:00 +23°C° 0 mm 2 mps 715 mmHg 59%
    21:00 +22°C° 0 mm 1 mps 715 mmHg 62%
    22:00 +22°C° 0 mm 1 mps 715 mmHg 64%
    23:00 +21°C° 0 mm 1 mps 714 mmHg 66%

    28 September, Friday

    Time Temperature Precipitation Wind Pressure Humidity
    00:00 +21°C° 0 mm 1 mps 714 mmHg 67%
    01:00 +21°C° 0 mm 1 mps 714 mmHg 69%
    02:00 +20°C° 0 mm 1 mps 713 mmHg 70%
    03:00 +20°C° 0 mm 1 mps 713 mmHg 72%
    04:00 +18°C° 0 mm 0 mps 713 mmHg 73%
    05:00 +18°C° 0 mm 0 mps 713 mmHg 74%
    06:00 +17°C° 0 mm 0 mps 713 mmHg 75%
    07:00 +21°C° 0 mm 1 mps 713 mmHg 69%
    08:00 +22°C° 0 mm 1 mps 713 mmHg 62%
    09:00 +24°C° 0 mm 1 mps 714 mmHg 56%
    10:00 +25°C° 0 mm 1 mps 713 mmHg 49%
    11:00 +26°C° 0 mm 2 mps 713 mmHg 43%
    12:00 +27°C° 0 mm 3 mps 713 mmHg 36%
    13:00 +27°C° 0 mm 3 mps 713 mmHg 36%
    14:00 +27°C° 0 mm 3 mps 712 mmHg 35%
    15:00 +27°C° 0 mm 4 mps 712 mmHg 35%
    16:00 +26°C° 0 mm 3 mps 712 mmHg 42%
    17:00 +24°C° 0 mm 3 mps 712 mmHg 48%
    18:00 +22°C° 0 mm 3 mps 712 mmHg 55%
    19:00 +21°C° 0 mm 2 mps 712 mmHg 59%
    20:00 +21°C° 0 mm 1 mps 712 mmHg 63%
    21:00 +21°C° 0 mm 1 mps 712 mmHg 68%
    22:00 +20°C° 0 mm 1 mps 712 mmHg 70%
    23:00 +18°C° 0 mm 0 mps 712 mmHg 72%

    29 September, Saturday

    Time Temperature Precipitation Wind Pressure Humidity
    00:00 +18°C° 0 mm 0 mps 711 mmHg 74%
    01:00 +17°C° 0 mm 0 mps 711 mmHg 74%
    02:00 +17°C° 0 mm 0 mps 711 mmHg 75%
    03:00 +17°C° 0 mm 0 mps 711 mmHg 76%
    04:00 +17°C° 0 mm 0 mps 711 mmHg 76%
    05:00 +17°C° 0 mm 0 mps 711 mmHg 75%
    06:00 +17°C° 0 mm 0 mps 711 mmHg 75%
    07:00 +18°C° 0 mm 0 mps 711 mmHg 66%
    08:00 +20°C° 0 mm 0 mps 712 mmHg 58%
    09:00 +22°C° 0 mm 0 mps 712 mmHg 49%
    10:00 +25°C° 0 mm 1 mps 712 mmHg 43%
    11:00 +27°C° 0 mm 1 mps 712 mmHg 37%
    12:00 +28°C° 0 mm 2 mps 712 mmHg 31%
    13:00 +28°C° 0 mm 2 mps 712 mmHg 30%
    14:00 +28°C° 0 mm 2 mps 712 mmHg 30%
    15:00 +29°C° 0 mm 3 mps 711 mmHg 29%
    16:00 +27°C° 0 mm 3 mps 711 mmHg 35%
    17:00 +26°C° 0 mm 2 mps 711 mmHg 41%
    18:00 +24°C° 0 mm 2 mps 711 mmHg 47%
    19:00 +23°C° 0 mm 2 mps 711 mmHg 51%
    20:00 +23°C° 0 mm 1 mps 712 mmHg 54%
    21:00 +22°C° 0 mm 1 mps 712 mmHg 58%
    22:00 +22°C° 0 mm 1 mps 712 mmHg 58%
    23:00 +22°C° 0 mm 1 mps 712 mmHg 59%
    Show more